Вернуться в каталог

CZ-2C DEB

АктивенSSO
NORAD 28482·DEBRIS·🇨🇳 China

Запущен Nov 18, 2004 с Xichang Satellite Launch Center

Loading…

Ближайшие Пролёты (ближайшие 24 часа)

TLE

СвежийSource: Space-Track

Эпоха: Sep 14, 2026, 04:19 UTC

1 28482U 04046D   26257.17992354  .00001771  00000-0  42215-3 0  9993
2 28482  98.6273 347.4762 0099141 288.1084  97.1387 14.52164226141542

Отслеживайте CZ-2C DEB в реальном времени с AllMySat

Download on the App Store